Showing default

YAOGAN-43 02C, 60947

Orbit data source: Space-Track

YAOGAN-43 02C, 60947 is a payload satellite owned by PLA GAD (CN) in LEO that was launched on Tue, 03 Sep 2024 UTC via a CHANG ZHENG 4B launch vehicle from the Xichang Space Center, China (XSC). Payload-class satellites include a variety of spacecraft equipped with specific instruments for various scientific and technological missions. These include communications satellites like Starlink; space stations such as the ISS; scientific satellites like the Hubble; Earth observation satellites from companies like Planet Labs, Umbra, and HawkEye 360; GPS; miniature CubeSats for education and research; and military/defense satellites.

Loading next visibility...
Identifier
60947, 2024-156C
Orbit
LEO
Country
Flag of CNCN / PRC
Related business
Manufacturer
SAST
Mission
Operational Defense Communications
Bus & Motor
Unknown
Mass
~300 kg wet, ~300 kg dry
Launch date (UTC)
2024-09-03 (2 years ago)
Launch vehicle
CHANG ZHENG 4B
Launch site
Xichang Space Center, China (XSC)
Object type
Payload
Rocket body
Debris
Shape & HBR
Box + 2 Pan, 2.5 m
Radar Cross Section
11.063 m², Medium (>0.1 m² and < 1m²)

Expand to show TLE details & history
Last TLE update: 7 hours ago

TLE from 7 hours ago
0 YAOGAN-43 02C
1 60947U 24156C   26256.73813684  .00005892  00000-0  24583-3 0  9994
2 60947  34.9998   1.2321 0001590 103.3269 256.7623 15.23016505112955
Epoch: 2026-09-13T17:42Z
TLE epoch observation values (Epoch: 2026-09-13T17:42:55.022Z)
Latitude
-0.00003°
Longitude
102.77431°
Altitude
495.905 km
Speed
7.619 km/s
True Right ascension
00h 04m 55s
True Declination
0° 00' 00"
Sunlit
Object was in full shadow at epoch
Visualization orbit readout
Latitude
Unknown
Longitude
Unknown
Altitude
Unknown
Speed
Unknown
Apparent Right ascension
Unknown
Apparent Declination
Unknown
Sunlit
N/A
Visualization observer readout
Local Sidereal Time
16:55:45
Azimuth
Unknown
Elevation
Unknown
Doppler factor
Unknown
Orbital elements
Apogee altitude
501.092 km
Perigee altitude
498.905 km
Semi-major axis
6,878.135 km
Eccentricity
0.00016
Inclination
34.9998°
RAAN
1.2321°
Arg. of periapsis
103.3269°
True anomaly
256.74456°
Mean anomaly
256.7623°
Eccentric anomaly
256.75343°
Mean motion
3.80485 °/min
Orbital period
94.62 mins
BSTAR
0.00024583
Loading maneuver chart data...
Computing Atmospheric mass density...
Loading historical data...
Loading historical data...
Loading historical data...
Loading historical data...
Loading historical data...
Loading historical data...
Loading historical data...

Documentation

Showing up to 5 results
|